Location: Unspecified
(50.1700°N, 6.8600°E)
Time: 08:57:05
(UTC+00:00)

Cosmos 1437 Rocket - Pass Details

Date: 24 January 2019
Orbit: 506 x 564 km, 81.2° (Epoch: 15 February)

Event Time Altitude Azimuth Distance (km) Brightness Sun altitude
Exits shadow 05:39:56 - 348° (NNW) 2,453 5.9 -15.4°
Reaches altitude 10° 05:41:28 10° 348° (NNW) 1,825 5.2 -15.2°
Maximum altitude 05:45:29 87° 76° (ENE) 545 2.7 -14.5°
Drops below altitude 10° 05:49:24 10° 168° (SSE) 1,773 5.7 -13.9°
Sets 05:51:31 0° 169° (S) 2,648 6.7 -13.6°
